Location: Freemans Gardens
(41.6414°N, 83.6077°W)
Time: 22:00:55
(UTC+00:00)

Cosmos 44 Rocket - Pass Details

Date: 29 October 2020
Orbit: 642 x 748 km, 65.1° (Epoch: 25 November)

Event Time Altitude Azimuth Distance (km) Brightness Sun altitude
Rises 23:06:08 0° 175° (S) 2,965 6.7 -7.0°
Reaches altitude 10° 23:08:49 10° 160° (SSE) 2,074 5.7 -7.4°
Maximum altitude 23:12:24 22° 110° (ESE) 1,461 4.5 -8.1°
Drops below altitude 10° 23:16:05 10° 60° (ENE) 2,135 5.2 -8.8°
Enters shadow 23:16:15 - 59° (ENE) 2,182 5.3 -8.8°
